Torna al catalogo

SL-8 DEB

AttivoLEO
NORAD 39695·DEBRIS·🇷🇺 Russia

Lanciato Feb 12, 1991 da Plesetsk Cosmodrome

Loading…

Prossimi Passaggi (prossime 24 ore)

TLE

AggiornatoSource: Space-Track

Epoca: Sep 12, 2026, 23:30 UTC

1 39695U 91009DJ  26255.97919699  .00000016  00000-0  29487-3 0  9990
2 39695  74.0630 160.2564 0139046 205.7304 153.6768 12.18921984302198

Traccia SL-8 DEB in tempo reale con AllMySat

Download on the App Store